カタログに戻る

FENGYUN 1C DEB

運用中PO
NORAD 30041·DEBRIS·🇨🇳 China

打ち上げ May 10, 1999 から Taiyuan Satellite Launch Center

Loading…

次のパス (今後24時間)

TLE

最新Source: Space-Track

元期: Sep 14, 2026, 20:10 UTC

1 30041U 99025NS  26257.84031443  .00000502  00000-0  29068-3 0  9997
2 30041  99.4906  25.4990 0035127 168.6477 343.6710 14.13588537 11846

AllMySatでFENGYUN 1C DEBをリアルタイム追跡

Download on the App Store